Terug naar catalogus

COSMOS 2251 DEB

ActiefLEO
NORAD 34389·DEBRIS·🇷🇺 Russia

Gelanceerd Jun 16, 1993 vanaf Plesetsk Cosmodrome

Loading…

Volgende Passages (komende 24 uur)

TLE

VersSource: Space-Track

Epoch: Sep 14, 2026, 12:14 UTC

1 34389U 93036QE  26257.50974410  .00000661  00000-0  20801-3 0  9997
2 34389  74.0165  98.1728 0029061 147.4473 229.8389 14.42107678919870

Volg COSMOS 2251 DEB in realtime met AllMySat

Download on the App Store